﻿_id,日時,平均風速(m/s),平均風向,最大瞬間風速(m/s),最大風速時風向,気温(℃),湿度(%),10分間移動積算雨量(mm),1時間移動積算雨量(mm),日雨量(mm),累計雨量(mm)
1,2019-12-02T00:00:00,1.3,東北東,4.3,東,14.1,57.4,0,0,0,0
2,2019-12-02T00:01:00,1.4,東北東,4.3,東,14.2,56.6,0,0,0,0
3,2019-12-02T00:02:00,1.5,東,4.3,東,14.1,56.6,0,0,0,0
4,2019-12-02T00:03:00,1.4,東,4.3,東,14,57.3,0,0,0,0
5,2019-12-02T00:04:00,1.4,東,4.3,東,13.9,57.9,0,0,0,0
6,2019-12-02T00:05:00,1.3,東,3.8,東南東,14,57.7,0,0,0,0
7,2019-12-02T00:06:00,1.3,東,4.5,南,13.7,59.5,0,0,0,0
8,2019-12-02T00:07:00,1.5,東南東,4.5,南,13.2,62.7,0,0,0,0
9,2019-12-02T00:08:00,1.5,東南東,4.5,南,13.5,61.2,0,0,0,0
10,2019-12-02T00:09:00,1.6,南東,4.5,南,13.5,61.6,0,0,0,0
11,2019-12-02T00:10:00,1.6,南東,4.5,南,13.7,60.8,0,0,0,0
12,2019-12-02T00:11:00,1.5,南南東,4.5,南,13.5,62.2,0,0,0,0
13,2019-12-02T00:12:00,1.5,南南東,4.5,南,13.7,61,0,0,0,0
14,2019-12-02T00:13:00,1.6,南,4.5,南,13.6,61,0,0,0,0
15,2019-12-02T00:14:00,1.6,南南西,4.5,南,13.4,62,0,0,0,0
16,2019-12-02T00:15:00,1.5,南西,4.5,南,13.4,62.3,0,0,0,0
17,2019-12-02T00:16:00,1.4,南西,4.5,南南東,13.5,61.7,0,0,0,0
18,2019-12-02T00:17:00,1.3,南西,3.9,東南東,13.8,59.3,0,0,0,0
19,2019-12-02T00:18:00,1.2,西南西,2.4,南南東,13.7,60.7,0,0,0,0
20,2019-12-02T00:19:00,1.2,西,2.4,南南東,13.7,61.3,0,0,0,0
21,2019-12-02T00:20:00,1.1,西北西,2.4,南南東,13.7,60.7,0,0,0,0
22,2019-12-02T00:21:00,1,北西,2.4,南南東,13.7,60.3,0,0,0,0
23,2019-12-02T00:22:00,1,北西,2.4,南南東,13.7,59.6,0,0,0,0
24,2019-12-02T00:23:00,0.9,北西,2.4,南南東,13.6,60.4,0,0,0,0
25,2019-12-02T00:24:00,0.9,北西,2.4,南南東,13.7,58.3,0,0,0,0
26,2019-12-02T00:25:00,0.9,西北西,2.4,南南東,13.9,57.1,0,0,0,0
27,2019-12-02T00:26:00,0.8,北西,1.9,北,13.9,57.5,0,0,0,0
28,2019-12-02T00:27:00,0.9,北西,1.9,北,13.9,57.9,0,0,0,0
29,2019-12-02T00:28:00,0.9,北北西,2.2,東北東,14.1,55.8,0,0,0,0
30,2019-12-02T00:29:00,0.9,北,2.2,東北東,14,55.9,0,0,0,0
31,2019-12-02T00:30:00,0.9,東,2.2,東北東,13.9,56.7,0,0,0,0
32,2019-12-02T00:31:00,0.9,東南東,2.2,東北東,13.7,58,0,0,0,0
33,2019-12-02T00:32:00,0.9,東南東,2.2,東北東,13.7,57.9,0,0,0,0
34,2019-12-02T00:33:00,0.9,東南東,2.2,東北東,13.5,59.1,0,0,0,0
35,2019-12-02T00:34:00,1.1,東,2.8,東南東,13.4,59.4,0,0,0,0
36,2019-12-02T00:35:00,1.3,東,2.8,東南東,13.3,60.1,0,0,0,0
37,2019-12-02T00:36:00,1.4,東,2.8,東南東,13.3,60.5,0,0,0,0
38,2019-12-02T00:37:00,1.4,東,2.8,東南東,13.5,58.4,0,0,0,0
39,2019-12-02T00:38:00,1.5,東,2.8,東南東,13.6,57.9,0,0,0,0
40,2019-12-02T00:39:00,1.5,東,2.8,東南東,13.6,57.5,0,0,0,0
41,2019-12-02T00:40:00,1.5,東,2.8,東南東,13.6,57.4,0,0,0,0
42,2019-12-02T00:41:00,1.7,東,3.5,南南東,13.8,56.4,0,0,0,0
43,2019-12-02T00:42:00,1.7,東,3.5,南南東,13.7,56.8,0,0,0,0
44,2019-12-02T00:43:00,1.8,東,3.5,南南東,13.5,58.1,0,0,0,0
45,2019-12-02T00:44:00,1.7,東北東,3.5,南南東,13.5,58.6,0,0,0,0
46,2019-12-02T00:45:00,1.8,東北東,5.6,南東,13.5,57.2,0,0,0,0
47,2019-12-02T00:46:00,2,東,5.6,南東,13.8,56.3,0,0,0,0
48,2019-12-02T00:47:00,2.2,東,6.6,東南東,13.8,55.8,0,0,0,0
49,2019-12-02T00:48:00,2.3,東,6.6,東南東,14,55.8,0,0,0,0
50,2019-12-02T00:49:00,2.3,東,6.6,東南東,13.7,57,0,0,0,0
51,2019-12-02T00:50:00,2.3,東南東,6.6,東南東,13.3,59.2,0,0,0,0
52,2019-12-02T00:51:00,2.2,東南東,6.6,東南東,13,60.8,0,0,0,0
53,2019-12-02T00:52:00,2.1,東南東,6.6,東南東,12.9,62,0,0,0,0
54,2019-12-02T00:53:00,2,南東,6.6,東南東,12.9,61.9,0,0,0,0
55,2019-12-02T00:54:00,1.9,南東,6.6,東南東,13.2,59.4,0,0,0,0
56,2019-12-02T00:55:00,1.7,南東,6.6,東南東,13.4,57.7,0,0,0,0
57,2019-12-02T00:56:00,1.4,南東,6.6,東南東,13.2,59.9,0,0,0,0
58,2019-12-02T00:57:00,1.2,南東,5.5,東南東,13.2,59.2,0,0,0,0
59,2019-12-02T00:58:00,0.9,南東,2.9,南,13.4,59.6,0,0,0,0
60,2019-12-02T00:59:00,0.8,南東,2,東,13.4,58.4,0,0,0,0
61,2019-12-02T01:00:00,0.8,東南東,2,東,13.4,57.4,0,0,0,0
62,2019-12-02T01:01:00,0.8,東,2,東,13.3,57.9,0,0,0,0
63,2019-12-02T01:02:00,0.8,東,2,東,13.2,59.1,0,0,0,0
64,2019-12-02T01:03:00,0.8,東,2,東,13.1,59.3,0,0,0,0
65,2019-12-02T01:04:00,0.8,東南東,2,東,12.8,62.9,0,0,0,0
66,2019-12-02T01:05:00,0.8,東南東,2,東,12.8,62.4,0,0,0,0
67,2019-12-02T01:06:00,0.9,東北東,2.7,西北西,12.9,62.5,0,0,0,0
68,2019-12-02T01:07:00,1,北,2.7,西北西,12.9,62.7,0,0,0,0
69,2019-12-02T01:08:00,1.1,北西,2.8,北西,13,62.4,0,0,0,0
70,2019-12-02T01:09:00,1.3,北西,2.8,北西,13,62.6,0,0,0,0
71,2019-12-02T01:10:00,1.4,西北西,2.8,北西,13,62.4,0,0,0,0
72,2019-12-02T01:11:00,1.5,西北西,3,西北西,13.1,61.3,0,0,0,0
73,2019-12-02T01:12:00,1.7,西北西,3,西北西,13.1,61.3,0,0,0,0
74,2019-12-02T01:13:00,1.7,西北西,3,西北西,13,61.8,0,0,0,0
75,2019-12-02T01:14:00,1.8,北西,3.2,西北西,12.9,61.8,0,0,0,0
76,2019-12-02T01:15:00,2,北西,3.2,西北西,12.9,61.3,0,0,0,0
77,2019-12-02T01:16:00,2,西北西,3.2,西北西,13,60.3,0,0,0,0
78,2019-12-02T01:17:00,1.9,西北西,3.2,西北西,13,60.7,0,0,0,0
79,2019-12-02T01:18:00,1.9,西北西,3.2,西北西,13.1,60.5,0,0,0,0
80,2019-12-02T01:19:00,1.8,西北西,3.2,西北西,12.7,62.6,0,0,0,0
81,2019-12-02T01:20:00,1.7,西北西,3.2,西北西,12.7,63.3,0,0,0,0
82,2019-12-02T01:21:00,1.5,西,3.2,西北西,12.6,63.9,0,0,0,0
83,2019-12-02T01:22:00,1.6,西,3.2,西北西,12.3,66.9,0,0,0,0
84,2019-12-02T01:23:00,1.7,西南西,3.2,西北西,12.3,67,0,0,0,0
85,2019-12-02T01:24:00,1.6,西南西,3.2,南,12.6,66.4,0,0,0,0
86,2019-12-02T01:25:00,1.5,西南西,3.2,南,12.9,62.6,0,0,0,0
87,2019-12-02T01:26:00,1.3,南西,3.2,南,13,61.6,0,0,0,0
88,2019-12-02T01:27:00,1.3,南西,3.2,南,13.1,61.3,0,0,0,0
89,2019-12-02T01:28:00,1.2,南西,3.2,南,12.9,61.9,0,0,0,0
90,2019-12-02T01:29:00,1.2,南南西,3.2,南,12.5,64.1,0,0,0,0
91,2019-12-02T01:30:00,1.2,南南西,3.2,南,12.5,64.2,0,0,0,0
92,2019-12-02T01:31:00,1.1,南南西,3.2,南,12.7,63,0,0,0,0
93,2019-12-02T01:32:00,1.1,南西,2.6,南南西,12.8,62.4,0,0,0,0
94,2019-12-02T01:33:00,1.2,西南西,2.7,西北西,13,61.8,0,0,0,0
95,2019-12-02T01:34:00,1.3,西南西,2.7,西北西,12.9,62.2,0,0,0,0
96,2019-12-02T01:35:00,1.4,西南西,2.7,西北西,12.6,63.2,0,0,0,0
97,2019-12-02T01:36:00,1.5,西南西,2.7,西北西,12.4,64.6,0,0,0,0
98,2019-12-02T01:37:00,1.6,西南西,2.7,西北西,12.1,66.4,0,0,0,0
99,2019-12-02T01:38:00,1.6,西,2.7,西北西,11.8,68.2,0,0,0,0
100,2019-12-02T01:39:00,1.7,西,2.7,西北西,11.8,69.4,0,0,0,0
101,2019-12-02T01:40:00,1.8,西,2.7,西北西,12.1,68.1,0,0,0,0
102,2019-12-02T01:41:00,1.9,西,2.7,西北西,12.2,67.7,0,0,0,0
103,2019-12-02T01:42:00,1.9,西南西,2.7,西北西,12.4,65.9,0,0,0,0
104,2019-12-02T01:43:00,1.9,西南西,2.7,西南西,12.4,66,0,0,0,0
105,2019-12-02T01:44:00,1.9,西南西,2.9,南南西,12.2,67,0,0,0,0
106,2019-12-02T01:45:00,2,南西,3,西南西,12.2,66.7,0,0,0,0
107,2019-12-02T01:46:00,1.9,南西,3,西南西,12.4,65.1,0,0,0,0
108,2019-12-02T01:47:00,2,西南西,3,西南西,12.3,65.6,0,0,0,0
109,2019-12-02T01:48:00,2,南西,3,西南西,12.3,65.7,0,0,0,0
110,2019-12-02T01:49:00,2,南西,3.2,南南西,12.1,66.6,0,0,0,0
111,2019-12-02T01:50:00,2.1,南西,3.2,南南西,12.3,66.3,0,0,0,0
112,2019-12-02T01:51:00,2,南西,3.2,南南西,12.4,65.3,0,0,0,0
113,2019-12-02T01:52:00,2,南西,3.2,南南西,12.3,65.4,0,0,0,0
114,2019-12-02T01:53:00,2,南西,3.2,南南西,12.1,66.5,0,0,0,0
115,2019-12-02T01:54:00,2,南西,3.2,南南西,12.2,66.2,0,0,0,0
116,2019-12-02T01:55:00,2,南南西,3.2,南南西,12.3,64.6,0,0,0,0
117,2019-12-02T01:56:00,1.9,南南西,3.2,南南西,12.4,64.2,0,0,0,0
118,2019-12-02T01:57:00,1.9,南南西,3.2,南南西,12.5,63.8,0,0,0,0
119,2019-12-02T01:58:00,1.9,南南西,3.2,南南西,12.4,63.8,0,0,0,0
120,2019-12-02T01:59:00,2,南南西,3.6,南南西,12.4,64.1,0,0,0,0
121,2019-12-02T02:00:00,2,南南西,3.6,南南西,12.5,63.7,0,0,0,0
122,2019-12-02T02:01:00,2,南南西,3.6,南南西,12.5,64,0,0,0,0
123,2019-12-02T02:02:00,2.1,南南西,3.6,南南西,12.6,63.6,0,0,0,0
124,2019-12-02T02:03:00,2.1,南西,3.6,南南西,12.6,62.8,0,0,0,0
125,2019-12-02T02:04:00,2,南西,3.6,南南西,12.5,62.9,0,0,0,0
126,2019-12-02T02:05:00,2.1,南西,3.6,南南西,12.4,63.6,0,0,0,0
127,2019-12-02T02:06:00,2.1,南西,3.6,南南西,12.4,63.5,0,0,0,0
128,2019-12-02T02:07:00,2.1,南南西,3.6,南南西,12.5,64.3,0,0,0,0
129,2019-12-02T02:08:00,2,南南西,3.6,南南西,12.5,64.1,0,0,0,0
130,2019-12-02T02:09:00,2,南南西,3.1,南南西,12.3,64.1,0,0,0,0
131,2019-12-02T02:10:00,1.9,南南西,3.1,南南西,12.3,64.5,0,0,0,0
132,2019-12-02T02:11:00,1.8,南南西,3.1,南南西,12.5,63.9,0,0,0,0
133,2019-12-02T02:12:00,1.6,南,3.1,南南西,12.5,63.6,0,0,0,0
134,2019-12-02T02:13:00,1.5,南,3.1,南南西,12.4,63.7,0,0,0,0
135,2019-12-02T02:14:00,1.4,南,3,南南西,12.4,64.4,0,0,0,0
136,2019-12-02T02:15:00,1.3,南南西,2.7,南,12.3,65.2,0,0,0,0
137,2019-12-02T02:16:00,1.3,南南西,2.7,南,12.3,65.2,0,0,0,0
138,2019-12-02T02:17:00,1.3,南南西,2.7,南,12.4,65.3,0,0,0,0
139,2019-12-02T02:18:00,1.3,南南西,2.7,南,12,67.7,0,0,0,0
140,2019-12-02T02:19:00,1.2,南南西,2.1,西南西,11.8,68.6,0,0,0,0
141,2019-12-02T02:20:00,1.3,南南西,2.1,西南西,11.9,68.5,0,0,0,0
142,2019-12-02T02:21:00,1.3,南南西,2.2,南南西,12.1,68.3,0,0,0,0
143,2019-12-02T02:22:00,1.4,南南西,2.6,南南西,12.1,68.4,0,0,0,0
144,2019-12-02T02:23:00,1.5,南南西,2.6,南南西,11.9,69.5,0,0,0,0
145,2019-12-02T02:24:00,1.5,南南西,2.6,南南西,11.9,69.9,0,0,0,0
146,2019-12-02T02:25:00,1.5,南南西,2.6,南南西,11.8,69.9,0,0,0,0
147,2019-12-02T02:26:00,1.4,南南西,2.6,南南西,11.8,70.6,0,0,0,0
148,2019-12-02T02:27:00,1.3,南南西,2.6,南南西,11.7,71.6,0,0,0,0
149,2019-12-02T02:28:00,1.3,南南西,2.6,南南西,11.7,71.6,0,0,0,0
150,2019-12-02T02:29:00,1.1,南南西,2.6,南南西,11.6,73.3,0,0,0,0
151,2019-12-02T02:30:00,1.1,南南西,2.6,南南西,11.6,73.2,0,0,0,0
152,2019-12-02T02:31:00,1,南南西,2.6,南南西,11.5,73.4,0,0,0,0
153,2019-12-02T02:32:00,0.9,南南西,2.1,南,11.4,74.7,0,0,0,0
154,2019-12-02T02:33:00,0.9,南南西,2.3,南南東,11.4,76.7,0,0,0,0
155,2019-12-02T02:34:00,0.9,南,2.3,南南東,11.5,78.3,0,0,0,0
156,2019-12-02T02:35:00,0.9,南,2.3,南南東,11.2,78.4,0,0,0,0
157,2019-12-02T02:36:00,0.8,南,2.3,南南東,11.1,79.5,0,0,0,0
158,2019-12-02T02:37:00,0.9,南,2.3,南南東,11.2,78.2,0,0,0,0
159,2019-12-02T02:38:00,0.9,南,2.3,南南東,11.1,79.4,0,0,0,0
160,2019-12-02T02:39:00,0.9,南,2.3,南南東,11.1,80.1,0,0,0,0
161,2019-12-02T02:40:00,0.9,南,2.3,南南東,11,81.3,0,0,0,0
162,2019-12-02T02:41:00,0.8,南,2.3,南南東,10.9,82.3,0,0,0,0
163,2019-12-02T02:42:00,0.8,南,2.3,南南東,11.2,84.2,0,0,0,0
164,2019-12-02T02:43:00,0.6,南,1.8,南,10.9,84.5,0,0,0,0
165,2019-12-02T02:44:00,0.6,南,1.8,南,10.7,85.2,0,0,0,0
166,2019-12-02T02:45:00,0.6,南,1.9,南南西,10.6,86.4,0,0,0,0
167,2019-12-02T02:46:00,0.7,南,1.9,南南西,10.5,86.6,0,0,0,0
168,2019-12-02T02:47:00,0.6,南,1.9,南南西,10.4,87,0,0,0,0
169,2019-12-02T02:48:00,0.6,南,1.9,南南西,10.6,86.9,0,0,0,0
170,2019-12-02T02:49:00,0.6,南,1.9,南南西,10.6,85.9,0,0,0,0
171,2019-12-02T02:50:00,0.7,南,1.9,南南西,10.6,86.6,0,0,0,0
172,2019-12-02T02:51:00,0.7,南南東,1.9,南南西,10.4,87.4,0,0,0,0
173,2019-12-02T02:52:00,0.7,南南東,1.9,南南西,10.4,88.2,0,0,0,0
174,2019-12-02T02:53:00,0.7,南,1.9,南南西,10.4,88.9,0,0,0,0
175,2019-12-02T02:54:00,0.6,南南東,1.9,南南西,10.5,88,0,0,0,0
176,2019-12-02T02:55:00,0.6,南南東,1.5,南,10.4,88.9,0,0,0,0
177,2019-12-02T02:56:00,0.6,南南東,1.5,南,10.3,89.6,0,0,0,0
178,2019-12-02T02:57:00,0.7,南南東,1.5,南,10.3,89.6,0,0,0,0
179,2019-12-02T02:58:00,0.7,南南東,1.4,南南西,10.3,89.7,0,0,0,0
180,2019-12-02T02:59:00,0.6,南南東,1.3,南東,10.4,89.9,0,0,0,0
181,2019-12-02T03:00:00,0.5,南南東,1.3,南東,10.5,89.3,0,0,0,0
182,2019-12-02T03:01:00,0.4,南南東,1.3,南東,10.6,87.7,0,0,0,0
183,2019-12-02T03:02:00,0.4,南,1.3,南東,10.5,87.4,0,0,0,0
184,2019-12-02T03:03:00,0.4,南,1.3,南東,10.6,87.8,0,0,0,0
185,2019-12-02T03:04:00,0.4,南,1.3,南東,10.6,87,0,0,0,0
186,2019-12-02T03:05:00,0.3,南南西,1.3,南東,10.4,88,0,0,0,0
187,2019-12-02T03:06:00,0.3,南西,1.3,南東,10.5,88.8,0,0,0,0
188,2019-12-02T03:07:00,0.3,西南西,1.6,西北西,10.6,88,0,0,0,0
189,2019-12-02T03:08:00,0.3,西南西,1.6,西北西,10.6,86,0,0,0,0
190,2019-12-02T03:09:00,0.4,西,1.6,西北西,10.5,86.1,0,0,0,0
191,2019-12-02T03:10:00,0.5,西,1.7,北北西,10.4,86.8,0,0,0,0
192,2019-12-02T03:11:00,0.5,西,1.7,北北西,10.3,87.5,0,0,0,0
193,2019-12-02T03:12:00,0.5,西,1.7,北北西,10.3,88.3,0,0,0,0
194,2019-12-02T03:13:00,0.5,西,1.7,北北西,10.4,88.9,0,0,0,0
195,2019-12-02T03:14:00,0.5,西,1.7,北北西,10.2,89.9,0,0,0,0
196,2019-12-02T03:15:00,0.5,西,1.7,北北西,10.2,90.9,0,0,0,0
197,2019-12-02T03:16:00,0.5,西南西,1.7,北北西,10.3,91.7,0,0,0,0
198,2019-12-02T03:17:00,0.4,西南西,1.7,北北西,10.2,92.3,0,0,0,0
199,2019-12-02T03:18:00,0.3,西南西,1.7,北北西,10.2,92.5,0,0,0,0
200,2019-12-02T03:19:00,0.3,南西,1.7,北北西,10.1,92.7,0,0,0,0
201,2019-12-02T03:20:00,0.1,静穏,0.8,北西,10.1,92.9,0,0,0,0
202,2019-12-02T03:21:00,0.1,静穏,0.7,南南東,10.1,93.3,0,0,0,0
203,2019-12-02T03:22:00,0.1,静穏,0.7,南南東,10.1,93.4,0,0,0,0
204,2019-12-02T03:23:00,0.1,静穏,0.7,南南東,10.1,93.8,0,0,0,0
205,2019-12-02T03:24:00,0.1,静穏,0.7,南南東,10.2,94.3,0.5,0.5,0.5,0.5
206,2019-12-02T03:25:00,0.1,静穏,0.7,南南東,10.2,93.9,0.5,0.5,0.5,0.5
207,2019-12-02T03:26:00,0.1,静穏,0.6,南南東,10.2,93.2,0.5,0.5,0.5,0.5
208,2019-12-02T03:27:00,0.1,静穏,0.8,南,10.2,93.6,0.5,0.5,0.5,0.5
209,2019-12-02T03:28:00,0.1,静穏,0.8,南,10.1,93.7,0.5,0.5,0.5,0.5
210,2019-12-02T03:29:00,0.1,静穏,0.8,南,10.1,93.8,0.5,0.5,0.5,0.5
211,2019-12-02T03:30:00,0.1,静穏,0.8,南,10.1,94.1,0.5,0.5,0.5,0.5
212,2019-12-02T03:31:00,0.1,静穏,0.8,南,10.1,94.3,0.5,0.5,0.5,0.5
213,2019-12-02T03:32:00,0.1,静穏,0.8,南,10.1,94.4,0.5,0.5,0.5,0.5
214,2019-12-02T03:33:00,0.1,静穏,0.8,南,10.4,95.4,0.5,0.5,0.5,0.5
215,2019-12-02T03:34:00,0.1,静穏,0.8,南,10.1,94.6,0,0.5,0.5,0.5
216,2019-12-02T03:35:00,0.1,静穏,0.8,南,10,93.8,0,0.5,0.5,0.5
217,2019-12-02T03:36:00,0.1,静穏,0.8,南,10,94,0,0.5,0.5,0.5
218,2019-12-02T03:37:00,0,静穏,0.5,南南東,10.1,94.1,0,0.5,0.5,0.5
219,2019-12-02T03:38:00,0.1,静穏,0.5,北西,10,94.2,0.5,1,1,1
220,2019-12-02T03:39:00,0.1,静穏,0.6,北西,10,93.5,0.5,1,1,1
221,2019-12-02T03:40:00,0,静穏,0.6,北西,10.1,93.5,0.5,1,1,1
222,2019-12-02T03:41:00,0,静穏,0.6,北西,10.2,93.7,0.5,1,1,1
223,2019-12-02T03:42:00,0.1,静穏,0.9,東,10.2,94,0.5,1,1,1
224,2019-12-02T03:43:00,0.1,静穏,0.9,東,10.1,93.3,0.5,1,1,1
225,2019-12-02T03:44:00,0.2,静穏,0.9,東,10,93.5,0.5,1,1,1
226,2019-12-02T03:45:00,0.3,東,1,東南東,10,93.8,0.5,1,1,1
227,2019-12-02T03:46:00,0.3,東南東,1,東南東,10,94.3,0.5,1,1,1
228,2019-12-02T03:47:00,0.3,東,1,東南東,9.9,94.4,0.5,1,1,1
229,2019-12-02T03:48:00,0.4,東,1,東南東,9.9,94.6,0,1,1,1
230,2019-12-02T03:49:00,0.4,東,1.3,北東,9.8,94.8,0,1,1,1
231,2019-12-02T03:50:00,0.6,東,1.3,北東,9.8,95.1,0.5,1.5,1.5,1.5
232,2019-12-02T03:51:00,0.7,東北東,1.3,北東,9.8,95.1,0.5,1.5,1.5,1.5
233,2019-12-02T03:52:00,0.7,東北東,1.3,北東,9.8,95.2,0.5,1.5,1.5,1.5
234,2019-12-02T03:53:00,0.8,東北東,1.4,北北東,9.8,95.2,0.5,1.5,1.5,1.5
235,2019-12-02T03:54:00,0.8,北東,1.4,北北東,9.8,95.3,0.5,1.5,1.5,1.5
236,2019-12-02T03:55:00,0.8,北東,1.4,北北東,9.8,95.3,0.5,1.5,1.5,1.5
237,2019-12-02T03:56:00,0.7,北東,1.4,北北東,9.8,95.3,0.5,1.5,1.5,1.5
238,2019-12-02T03:57:00,0.7,北東,1.4,北北東,9.8,95.3,0.5,1.5,1.5,1.5
239,2019-12-02T03:58:00,0.7,北北東,1.4,北北東,9.8,95.3,0.5,1.5,1.5,1.5
240,2019-12-02T03:59:00,0.6,北北東,1.4,北北東,9.8,95.3,0.5,1.5,1.5,1.5
241,2019-12-02T04:00:00,0.6,北,1.4,北北東,9.8,95,0,1.5,1.5,1.5
242,2019-12-02T04:01:00,0.5,北,1.4,北北東,9.8,94.8,0,1.5,1.5,1.5
243,2019-12-02T04:02:00,0.4,北,1.4,北北東,9.8,94.8,0,1.5,1.5,1.5
244,2019-12-02T04:03:00,0.3,北,1.1,西北西,9.8,94.9,0.5,2,2,2
245,2019-12-02T04:04:00,0.2,静穏,1.1,西北西,9.8,95,0.5,2,2,2
246,2019-12-02T04:05:00,0.2,静穏,1.1,西北西,9.8,95.1,0.5,2,2,2
247,2019-12-02T04:06:00,0.2,静穏,1.1,西北西,9.8,95.1,0.5,2,2,2
248,2019-12-02T04:07:00,0.2,静穏,1.1,西北西,9.9,95.1,0.5,2,2,2
249,2019-12-02T04:08:00,0.2,静穏,1.1,西北西,9.9,95.1,0.5,2,2,2
250,2019-12-02T04:09:00,0.1,静穏,1.1,西北西,10.1,95.3,0.5,2,2,2
251,2019-12-02T04:10:00,0,静穏,0.7,西北西,10,95.2,0.5,2,2,2
252,2019-12-02T04:11:00,0.1,静穏,1.4,東北東,9.9,94.7,0.5,2,2,2
253,2019-12-02T04:12:00,0.2,静穏,1.4,東北東,9.8,94.3,0.5,2,2,2
254,2019-12-02T04:13:00,0.3,東北東,1.4,東北東,9.7,94.2,0.5,2.5,2.5,2.5
255,2019-12-02T04:14:00,0.4,東北東,2.1,東北東,9.6,94.5,0.5,2.5,2.5,2.5
256,2019-12-02T04:15:00,0.6,東北東,2.2,東北東,9.6,94.8,0.5,2.5,2.5,2.5
257,2019-12-02T04:16:00,0.8,東北東,2.2,東北東,9.6,95,0.5,2.5,2.5,2.5
258,2019-12-02T04:17:00,0.8,東,2.2,東北東,9.6,95.1,0.5,2.5,2.5,2.5
259,2019-12-02T04:18:00,0.9,東,2.2,東北東,9.6,95.2,0.5,2.5,2.5,2.5
260,2019-12-02T04:19:00,1,東北東,2.2,東北東,9.6,95.3,0.5,2.5,2.5,2.5
261,2019-12-02T04:20:00,1.2,東北東,2.2,東北東,9.6,95.4,0.5,2.5,2.5,2.5
262,2019-12-02T04:21:00,1.2,東北東,2.2,東北東,9.6,95.4,0.5,2.5,2.5,2.5
263,2019-12-02T04:22:00,1.3,東北東,2.2,東北東,9.6,95.4,1,3,3,3
264,2019-12-02T04:23:00,1.3,東北東,2.2,東北東,9.6,95.5,0.5,3,3,3
265,2019-12-02T04:24:00,1.3,東北東,2.2,東北東,9.6,95.5,0.5,2.5,3,3
266,2019-12-02T04:25:00,1.2,東北東,2.2,東北東,9.6,95.5,0.5,2.5,3,3
267,2019-12-02T04:26:00,1.2,東北東,2.3,東北東,9.6,95.5,0.5,2.5,3,3
268,2019-12-02T04:27:00,1.4,東北東,2.5,東北東,9.6,95.6,0.5,2.5,3,3
269,2019-12-02T04:28:00,1.5,東北東,2.6,東北東,9.6,95.6,0.5,2.5,3,3
270,2019-12-02T04:29:00,1.5,東北東,2.6,東北東,9.6,95.6,1,3,3.5,3.5
271,2019-12-02T04:30:00,1.5,東北東,2.6,東北東,9.6,95.6,1,3,3.5,3.5
272,2019-12-02T04:31:00,1.6,東北東,2.6,東北東,9.6,95.6,1,3,3.5,3.5
273,2019-12-02T04:32:00,1.5,東北東,2.6,東北東,9.6,95.6,0.5,3,3.5,3.5
274,2019-12-02T04:33:00,1.5,東北東,2.6,東北東,9.6,95.6,0.5,3,3.5,3.5
275,2019-12-02T04:34:00,1.4,東北東,2.6,東北東,9.6,95.6,1,3.5,4,4
276,2019-12-02T04:35:00,1.3,東北東,2.6,東北東,9.6,95.6,1,3.5,4,4
277,2019-12-02T04:36:00,1.2,東北東,2.6,東北東,9.8,95.8,1,3.5,4,4
278,2019-12-02T04:37:00,1.1,東北東,2.6,東北東,9.7,95.7,1,3.5,4,4
279,2019-12-02T04:38:00,0.9,東北東,2.1,東北東,9.6,95.4,1,3,4,4
280,2019-12-02T04:39:00,0.8,東北東,2.1,東北東,9.6,95.4,0.5,3,4,4
281,2019-12-02T04:40:00,0.7,東北東,2.1,東北東,9.6,95.4,1,3.5,4.5,4.5
282,2019-12-02T04:41:00,0.7,東北東,1.8,東南東,9.6,95.4,1,3.5,4.5,4.5
283,2019-12-02T04:42:00,0.7,東,1.5,東南東,9.6,95.5,1,3.5,4.5,4.5
284,2019-12-02T04:43:00,0.7,東,1.5,東南東,9.6,95.5,1,3.5,4.5,4.5
285,2019-12-02T04:44:00,0.7,東,1.7,東,9.6,95.5,0.5,3.5,4.5,4.5
286,2019-12-02T04:45:00,0.8,東,1.7,東,9.6,95.6,1,4,5,5
287,2019-12-02T04:46:00,0.9,東,1.7,東,9.6,95.6,1,4,5,5
288,2019-12-02T04:47:00,0.9,東,1.7,東,9.6,95.6,1,4,5,5
289,2019-12-02T04:48:00,0.9,東,1.9,北東,9.5,95.6,1,4,5,5
290,2019-12-02T04:49:00,1.1,東,2.3,北東,9.5,95.6,1,4,5,5
291,2019-12-02T04:50:00,1.1,東,2.3,北東,9.5,95.6,1,4,5.5,5.5
292,2019-12-02T04:51:00,1.2,東,2.3,北東,9.5,95.6,1,4,5.5,5.5
293,2019-12-02T04:52:00,1.2,東北東,2.3,北東,9.5,95.7,1,4,5.5,5.5
294,2019-12-02T04:53:00,1.2,東北東,2.3,北東,9.5,95.8,1,4,5.5,5.5
295,2019-12-02T04:54:00,1.2,北東,2.3,北東,9.5,95.8,1,4,5.5,5.5
296,2019-12-02T04:55:00,1.2,北東,2.3,北東,9.5,95.9,0.5,4,5.5,5.5
297,2019-12-02T04:56:00,1.2,北東,2.3,北東,9.5,95.9,0.5,4,5.5,5.5
298,2019-12-02T04:57:00,1.2,北東,2.3,北東,9.5,95.9,0.5,4,5.5,5.5
299,2019-12-02T04:58:00,1.1,北東,2.3,北東,9.5,95.9,0.5,4,5.5,5.5
300,2019-12-02T04:59:00,1,北東,2.2,北,9.5,95.9,1,4.5,6,6
301,2019-12-02T05:00:00,1,北東,2.2,北,9.5,95.9,0.5,4.5,6,6
302,2019-12-02T05:01:00,0.8,北東,2.2,北,9.5,96,0.5,4.5,6,6
303,2019-12-02T05:02:00,0.7,北東,2.2,北,9.5,96,0.5,4.5,6,6
304,2019-12-02T05:03:00,0.7,北東,1.6,北東,9.5,96,0.5,4,6,6
305,2019-12-02T05:04:00,0.6,北東,1.4,北東,9.6,96,0.5,4,6,6
306,2019-12-02T05:05:00,0.5,北東,1.4,北東,9.6,96.2,0.5,4,6,6
307,2019-12-02T05:06:00,0.5,北東,1.4,北東,9.6,96.1,0.5,4,6,6
308,2019-12-02T05:07:00,0.6,北北東,1.4,北東,9.5,96,1,4.5,6.5,6.5
309,2019-12-02T05:08:00,0.6,北北東,1.4,北東,9.5,95.9,1,4.5,6.5,6.5
310,2019-12-02T05:09:00,0.6,北,1.4,北西,9.5,95.9,0.5,4.5,6.5,6.5
311,2019-12-02T05:10:00,0.6,北北西,2.1,西南西,9.5,95.9,0.5,4.5,6.5,6.5
312,2019-12-02T05:11:00,0.8,北西,2.2,西南西,9.5,96,0.5,4.5,6.5,6.5
313,2019-12-02T05:12:00,0.9,西北西,2.2,西南西,9.5,96,0.5,4.5,6.5,6.5
314,2019-12-02T05:13:00,0.9,西,2.2,西南西,9.6,96.1,0.5,4,6.5,6.5
315,2019-12-02T05:14:00,1,西,2.2,西南西,9.5,96.1,0.5,4,6.5,6.5
316,2019-12-02T05:15:00,1.2,西,2.4,西南西,9.5,96,0.5,4,6.5,6.5
317,2019-12-02T05:16:00,1.3,西南西,2.4,西南西,9.5,96,1,4.5,7,7
318,2019-12-02T05:17:00,1.4,西南西,2.4,西南西,9.5,96,0.5,4.5,7,7
319,2019-12-02T05:18:00,1.4,西南西,2.4,西南西,9.5,96.1,0.5,4.5,7,7
320,2019-12-02T05:19:00,1.5,西南西,2.4,西南西,9.6,96.1,0.5,4.5,7,7
321,2019-12-02T05:20:00,1.4,西南西,2.5,西南西,9.6,96.2,0.5,4.5,7,7
322,2019-12-02T05:21:00,1.5,西南西,2.8,西南西,9.6,96.2,0.5,4.5,7,7
323,2019-12-02T05:22:00,1.5,西南西,2.8,西南西,9.7,96.2,0.5,4,7,7
324,2019-12-02T05:23:00,1.6,西南西,2.8,西南西,9.7,96.2,0.5,4,7,7
325,2019-12-02T05:24:00,1.6,西南西,2.8,西南西,9.7,96.2,1,4.5,7.5,7.5
326,2019-12-02T05:25:00,1.4,西南西,2.8,西南西,9.7,96.1,1,4.5,7.5,7.5
327,2019-12-02T05:26:00,1.3,西南西,2.8,西南西,9.7,96,0.5,4.5,7.5,7.5
328,2019-12-02T05:27:00,1.3,西南西,2.8,西南西,9.8,96,0.5,4.5,7.5,7.5
329,2019-12-02T05:28:00,1.1,西南西,2.8,西南西,9.8,95.9,0.5,4.5,7.5,7.5
330,2019-12-02T05:29:00,1.1,南西,2.8,西南西,9.7,95.8,0.5,4,7.5,7.5
331,2019-12-02T05:30:00,0.9,南西,2.8,西南西,9.7,95.8,0.5,4,7.5,7.5
332,2019-12-02T05:31:00,0.7,南西,2.4,西,9.8,95.8,0.5,4,7.5,7.5
333,2019-12-02T05:32:00,0.6,南西,2.2,南西,9.9,95.9,0.5,4,7.5,7.5
334,2019-12-02T05:33:00,0.5,南西,2.2,南西,9.8,95.8,0.5,4,7.5,7.5
335,2019-12-02T05:34:00,0.5,南西,2.5,西,9.8,95.7,0,3.5,7.5,7.5
336,2019-12-02T05:35:00,0.7,南西,3.3,西,9.7,95.5,0,3.5,7.5,7.5
337,2019-12-02T05:36:00,0.9,西南西,3.3,西,9.7,95.5,0,3.5,7.5,7.5
338,2019-12-02T05:37:00,1,西南西,3.3,西,9.7,95.4,0,3.5,7.5,7.5
339,2019-12-02T05:38:00,1.2,西,3.3,西,9.7,95.4,0,3.5,7.5,7.5
340,2019-12-02T05:39:00,1.3,西,3.3,西,9.6,95.4,0,3.5,7.5,7.5
341,2019-12-02T05:40:00,1.5,西,3.3,西,9.6,95.5,0,3,7.5,7.5
342,2019-12-02T05:41:00,1.7,西北西,3.3,西,9.6,95.6,0,3,7.5,7.5
343,2019-12-02T05:42:00,1.8,西北西,3.3,西,9.6,95.6,0,3,7.5,7.5
344,2019-12-02T05:43:00,1.9,西北西,3.3,西,9.6,95.7,0,3,7.5,7.5
345,2019-12-02T05:44:00,1.9,西北西,3.3,西,9.7,95.8,0,3,7.5,7.5
346,2019-12-02T05:45:00,1.8,西北西,2.7,西北西,9.8,96,0,2.5,7.5,7.5
347,2019-12-02T05:46:00,1.8,西北西,2.7,西北西,9.8,96,0,2.5,7.5,7.5
348,2019-12-02T05:47:00,1.8,西北西,2.3,西北西,9.9,96,0,2.5,7.5,7.5
349,2019-12-02T05:48:00,1.8,西北西,2.3,西北西,9.9,95.9,0,2.5,7.5,7.5
350,2019-12-02T05:49:00,1.7,西,2.3,西北西,9.8,95.8,0,2.5,7.5,7.5
351,2019-12-02T05:50:00,1.6,西,2.3,西北西,9.9,95.9,0,2,7.5,7.5
352,2019-12-02T05:51:00,1.5,西,2.3,西北西,9.9,95.8,0,2,7.5,7.5
353,2019-12-02T05:52:00,1.4,西,2.3,西南西,9.9,95.7,0,2,7.5,7.5
354,2019-12-02T05:53:00,1.3,西,2.3,西南西,9.9,95.7,0,2,7.5,7.5
355,2019-12-02T05:54:00,1.2,西,2.3,西南西,9.8,95.6,0,2,7.5,7.5
356,2019-12-02T05:55:00,1.1,西南西,2.3,西南西,9.8,95.5,0.5,2.5,8,8
357,2019-12-02T05:56:00,1,西南西,2.3,西南西,9.8,95.5,0.5,2.5,8,8
358,2019-12-02T05:57:00,0.9,西南西,2.3,西南西,9.8,95.6,0.5,2.5,8,8
359,2019-12-02T05:58:00,0.9,西南西,2.5,西,9.7,95.6,0.5,2.5,8,8
360,2019-12-02T05:59:00,1,西南西,3.2,西,9.8,95.7,0.5,2,8,8
361,2019-12-02T06:00:00,1.1,西南西,3.2,西,9.8,95.8,0.5,2,8,8
362,2019-12-02T06:01:00,1.2,南西,3.2,西,9.8,95.8,0.5,2,8,8
363,2019-12-02T06:02:00,1.3,南西,3.2,西,9.8,95.8,0.5,2,8,8
364,2019-12-02T06:03:00,1.5,南西,3.7,西南西,9.8,95.8,0.5,2,8,8
365,2019-12-02T06:04:00,1.7,西南西,4.2,西,9.8,95.8,0.5,2,8,8
366,2019-12-02T06:05:00,1.9,西南西,4.2,西,9.7,95.7,0,2,8,8
367,2019-12-02T06:06:00,2.2,西南西,4.2,西,9.7,95.7,0,2,8,8
368,2019-12-02T06:07:00,2.3,西南西,4.2,西,9.9,95.9,0,1.5,8,8
369,2019-12-02T06:08:00,2.4,西南西,4.2,西,9.9,96,0,1.5,8,8
370,2019-12-02T06:09:00,2.2,西南西,4.2,西,9.9,95.9,0,1.5,8,8
371,2019-12-02T06:10:00,2.2,南西,4.2,西,9.9,95.8,0,1.5,8,8
372,2019-12-02T06:11:00,2.2,西南西,4.2,西,9.8,95.8,0,1.5,8,8
373,2019-12-02T06:12:00,2.4,西南西,4.9,西南西,9.8,95.8,0,1.5,8,8
374,2019-12-02T06:13:00,2.5,西南西,4.9,西南西,9.9,95.7,0,1.5,8,8
375,2019-12-02T06:14:00,2.4,西南西,4.9,西南西,9.9,95.6,0,1.5,8,8
376,2019-12-02T06:15:00,2.3,西南西,4.9,西南西,9.8,95.6,0,1.5,8,8
377,2019-12-02T06:16:00,2.4,西南西,4.9,西南西,9.9,95.7,0,1,8,8
378,2019-12-02T06:17:00,2.5,西南西,4.9,西南西,9.8,95.6,0,1,8,8
379,2019-12-02T06:18:00,2.6,西南西,4.9,西南西,9.9,95.6,0,1,8,8
380,2019-12-02T06:19:00,2.9,西南西,4.9,西南西,9.9,95.6,0,1,8,8
381,2019-12-02T06:20:00,3.1,西,4.9,西南西,9.9,95.7,0,1,8,8
382,2019-12-02T06:21:00,3.2,西,4.9,西南西,9.9,95.7,0,1,8,8
383,2019-12-02T06:22:00,3.1,西,4.9,西南西,10.1,95.7,0,1,8,8
384,2019-12-02T06:23:00,3,西,4.9,西南西,10,95.8,0,1,8,8
385,2019-12-02T06:24:00,2.9,西,4.9,西南西,10,95.6,0,0.5,8,8
386,2019-12-02T06:25:00,2.9,西南西,4.9,西南西,10,95.6,0,0.5,8,8
387,2019-12-02T06:26:00,2.8,西南西,4.9,西南西,10.1,95.6,0,0.5,8,8
388,2019-12-02T06:27:00,2.7,西,4.7,西南西,10.1,95.6,0,0.5,8,8
389,2019-12-02T06:28:00,2.6,西,4.6,西南西,10.1,95.5,0,0.5,8,8
390,2019-12-02T06:29:00,2.4,西南西,4,西南西,10.2,95.5,0,0.5,8,8
391,2019-12-02T06:30:00,2.4,西南西,4.7,南,10.1,95.5,0,0.5,8,8
392,2019-12-02T06:31:00,2.4,西南西,4.7,南,10.2,95.5,0,0.5,8,8
393,2019-12-02T06:32:00,2.4,西南西,4.7,南,10.2,95.5,0,0.5,8,8
394,2019-12-02T06:33:00,2.6,西南西,5.7,西南西,10.2,95.3,0,0.5,8,8
395,2019-12-02T06:34:00,2.7,西南西,5.7,西南西,10.2,95.3,0,0.5,8,8
396,2019-12-02T06:35:00,2.8,西南西,5.7,西南西,10.2,95.2,0,0.5,8,8
397,2019-12-02T06:36:00,2.8,西南西,5.7,西南西,10.2,95.3,0,0.5,8,8
398,2019-12-02T06:37:00,2.8,西南西,5.7,西南西,10.2,95.3,0,0.5,8,8
399,2019-12-02T06:38:00,2.8,西南西,5.7,西南西,10.2,95.3,0,0.5,8,8
400,2019-12-02T06:39:00,2.9,西南西,5.7,西南西,10.2,95.3,0,0.5,8,8
401,2019-12-02T06:40:00,2.7,西南西,5.7,西南西,10.2,95.4,0,0.5,8,8
402,2019-12-02T06:41:00,2.7,西南西,5.7,西南西,10.3,95.4,0,0.5,8,8
403,2019-12-02T06:42:00,2.6,西南西,5.7,西南西,10.3,95.5,0,0.5,8,8
404,2019-12-02T06:43:00,2.6,西南西,5,西南西,10.3,95.3,0,0.5,8,8
405,2019-12-02T06:44:00,2.4,西南西,4.6,西,10.3,95.3,0,0.5,8,8
406,2019-12-02T06:45:00,2.4,西南西,4.6,西,10.3,95.3,0,0.5,8,8
407,2019-12-02T06:46:00,2.4,西南西,4.6,西,10.4,95.3,0,0.5,8,8
408,2019-12-02T06:47:00,2.3,西南西,4.6,西,10.4,95.2,0,0.5,8,8
409,2019-12-02T06:48:00,2.3,西南西,4.6,西,10.4,95,0,0.5,8,8
410,2019-12-02T06:49:00,2.3,西南西,4.6,西,10.3,94.8,0,0.5,8,8
411,2019-12-02T06:50:00,2.4,西南西,4.6,西,10.3,94.6,0,0.5,8,8
412,2019-12-02T06:51:00,2.4,西南西,4.6,西,10.4,94.6,0,0.5,8,8
413,2019-12-02T06:52:00,2.5,西南西,4.6,西,10.5,95.1,0,0.5,8,8
414,2019-12-02T06:53:00,2.4,西南西,4.1,西南西,10.5,95.2,0,0.5,8,8
415,2019-12-02T06:54:00,2.3,西南西,4.1,西南西,10.5,95.1,0,0.5,8,8